Regional Weather Roundup
Issued by NWS Jackson, KY

Home | Current Version | Previous Version | Graphics & Text | Print | Product List | Glossary On
Versions: 1 2 3 4 5 6 7 8 9 10 11 12 13 14 15 16 17 18 19 20 21 22 23 24 25 26 27 28 29 30 31 32 33 34 35 36 37 38 39 40 41 42 43 44 45 46 47 48 49 50
387
ASUS43 KJKL 221110
RWRJKL

EAST KENTUCKY HOURLY WEATHER ROUNDUP
NATIONAL WEATHER SERVICE JACKSON KY
700 AM EDT THU JUN 22 2017

NOTE: "FAIR" INDICATES FEW OR NO CLOUDS BELOW 12,000 FEET WITH
NO SIGNIFICANT WEATHER AND/OR OBSTRUCTIONS TO VISIBILITY.

* THESE REPORTS ARE NOT UNDER NWS QUALITY CONTROL AND MAY NOT
  REPORT WEATHER SUCH AS PRECIPITATION AND FOG.

KYZ079-080-083-085-087-088-110-112-115-119-120-221200
...EASTERN KENTUCKY...

CITY           SKY/WX    TMP DP  RH WIND       PRES   REMARKS
JACKSON        CLOUDY    70  65  84 CALM      30.09S
LONDON         CLOUDY    67  64  90 CALM      30.08S
SOMERSET*      MOCLDY    66  66 100 CALM      30.08S
MONTICELLO*    CLOUDY    69  67  93 VRB7      30.07F
WILLIAMSBURG*  CLOUDY    68  68 100 SE3       30.08S
MIDDLESBORO*   CLOUDY    67  67 100 CALM      30.11R
HARLAN APT*    CLOUDY    63  61  94 CALM      30.12S
PIKE CO APT*     N/A     68  66  96 SE3       30.10S
BIG SANDY APT* CLOUDY    70  65  85 S3        30.09R
MOREHEAD APT*  CLOUDY    68  64  88 S3        30.08S FOG
$$

KYZ035-036-041-042-044-050-067-078-099-221200
...CENTRAL KENTUCKY...

CITY           SKY/WX    TMP DP  RH WIND       PRES   REMARKS
MT STERLING*   PTCLDY    70  66  88 SW3       30.07S
FLEMING/MASON* CLOUDY    69  66  90 S6        30.06R
DANVILLE*      CLOUDY    66  64  94 CALM      30.07S
LEXINGTON      MOCLDY    70  66  87 S7        30.05R
FRANKFORT      CLOUDY    71  66  84 S3        30.02S HAZE
LOUISVILLE     CLOUDY    74  68  81 E6        30.00R
LEBANON*         N/A     72  68  88 S9        30.04S
GLASGOW*       CLOUDY    72  66  82 CALM      30.03R
BOWLING GREEN  CLOUDY    72  70  93 SE3       30.01S
$$

KYZ091>093-OHZ055-061-077-WVZ005-015-034-035-042-221200
...SOUTHERN OHIO/WEST VIRGINIA...

CITY           SKY/WX    TMP DP  RH WIND       PRES   REMARKS
COVINGTON      CLOUDY    70  67  90 S6        30.01S
COLUMBUS       MOCLDY    73  69  87 S7        30.00R
DAYTON         CLOUDY    72  67  84 S10       30.00S
WILMINGTON     CLOUDY    71  68  90 SW7       30.02R
HUNTINGTON     MOCLDY    70  64  81 VRB3      30.05S
CHARLESTON     CLOUDY    68  65  90 CALM      30.07S
PINEVILLE*     MOCLDY    63  62  97 MISG      30.18S
BECKLEY        CLOUDY    65  61  87 S7        30.16S
BLUEFIELD      CLOUDY    63  60  90 W5        30.18S
LOGAN CO APT*    N/A     68  64  88 CALM      30.11S
$$

VAZ002-007-008-TNZ017-027-036-066-071-221200
...SOUTHWEST VIRGINIA/EAST TENNESSEE...

CITY           SKY/WX    TMP DP  RH WIND       PRES   REMARKS
WISE*          CLOUDY    66  66 100 CALM      30.18S
JONESVILLE*      N/A     64  63  94 CALM      30.14S
ABINGDON*      CLOUDY    65  64  94 CALM      30.16S
BRISTOL        CLOUDY    65  63  93 CALM      30.13R
MORRISTOWN*    CLOUDY    70  68  94 E3        30.09S
SEVIERVILLE*   MOSUNNY   66  64  94 CALM      30.08S
KNOXVILLE      CLOUDY    70  66  87 E3        30.08R
LAFOLLETTE*    PTSUNNY   70  68  94 NE3       30.12R
OAK RIDGE      CLOUDY    71  67  87 CALM      30.09R
CROSSVILLE     CLOUDY    68  64  87 S5        30.11R
NASHVILLE      CLOUDY    74  68  81 S8        30.01R
$$

...KEY TO REMARKS...
VSB - VISIBILITY IN MILES
WCI - WIND CHILL INDEX
HX  - HEAT INDEX

$$




USA.gov is the U.S. government's official web portal to all federal, state and local government web resources and services.